カタログに戻る

COSMOS 1168

運用中軍事PO
NORAD 11735·PAYLOAD·🇷🇺 Russia

打ち上げ Mar 17, 1980 から Plesetsk Cosmodrome

Loading…

次のパス (今後24時間)

TLE

最新Source: Space-Track

元期: Sep 14, 2026, 07:26 UTC

1 11735U 80022A   26257.31001150  .00000039  00000-0  24772-4 0  9990
2 11735  82.9475 208.4047 0036807 110.9091  51.6554 13.75259029332405

AllMySatでCOSMOS 1168をリアルタイム追跡

Download on the App Store